User: anonymous   Login
Location: Unspecified
(0.0000°N, 0.0000°E)
Time: 16:33:13
(UTC+00:00)
Language:

COSMOS 2468 - Orbit

View from above orbital plane
View from above orbital plane
View from above satellite
View from above satellite

Ground track
Ground track

The orbit data is extracted from the following two-line orbital elements,

1 37154U 10043C   17147.69677510 +.00000028 +00000-0 +12970-3 0  9991
2 37154 082.4597 332.9076 0014343 325.4162 034.5984 12.43632970304800
Epoch (UTC): 27 May 2017 16:43:21
Eccentricity: 0.0014343
inclination: 82.4597°
perigee height: 1480 km
apogee height: 1502 km
right ascension of ascending node: 332.9076°
argument of perigee: 325.4162°
revolutions per day: 12.43632970
mean anomaly at epoch: 34.5984°
orbit number at epoch: 30480

The dashed part of the orbit path shows where the satellite is in the earth's shadow,  

DLR